Regional Weather Roundup
Issued by NWS

Home | Current Version | Previous Version | Text Only | Print | Product List | Glossary Off
Versions: 1 2 3 4 5 6 7 8 9 10 11 12 13 14 15 16 17 18 19 20 21 22 23 24 25 26 27 28 29 30 31 32 33 34 35 36 37 38 39 40 41 42 43 44 45 46 47 48 49 50

000
ASUS43 KLOT 260300
RWRIL

ILLINOIS REGIONAL WEATHER ROUNDUP
NATIONAL WEATHER SERVICE CHICAGO/ROMEOVILLE IL
900 PM CST SUN JAN 25 2015

NOTE: "FAIR" INDICATES FEW OR NO CLOUDS BELOW 12,000 FEET WITH NO
SIGNIFICANT WEATHER AND/OR OBSTRUCTIONS TO VISIBILITY.

* THESE STATIONS ARE NOT UNDER NWS QUALITY CONTROL. THEY ALSO MAY NOT
  REPORT WEATHER SUCH AS PRECIPITATION OR FOG.

ILZ001-002-007-009-015-016-024-260400-
NORTHWEST ILLINOIS

CITY           SKY/WX    TMP DP  RH WIND       PRES   REMARKS
MOLINE         CLEAR     22  14  71 N9        30.07R WCI  12
STERLING*      CLEAR     19  10  68 NE7       30.03R WCI  10
$$

ILZ003-004-008-010-011-017-018-260400-
NORTH CENTRAL ILLINOIS

CITY           SKY/WX    TMP DP  RH WIND       PRES   REMARKS
ROCKFORD       CLEAR     19  10  68 N13       30.04S WCI   6
$$

ILZ005-006-012>014-019>023-260400-
NORTHEAST ILLINOIS

CITY           SKY/WX    TMP DP  RH WIND       PRES   REMARKS
CHICAGO-OHARE  PTCLDY    25  15  66 NE14      29.98R WCI  13
CHICAGO-MIDWAY MOCLDY    28  18  66 NE17G25   29.97R WCI  16
AURORA         CLEAR     23  14  68 N9        29.98S WCI  13
WAUKEGAN       CLEAR     24  12  60 N7        29.99S WCI  16
DUPAGE AIRPORT CLEAR     21  14  74 N10       29.97R WCI  10
WHEELING       CLEAR     25  15  66 NE9       30.00S WCI  15
NORTHERLY ISL    N/A     27  19  72 NE17        N/A  WCI  14
$$

LMZ740>746-260400-
SOUTHERN LAKE MICHIGAN

STATION/POSITION SKY/WX   TEMP    WIND        PRES    VSBY  WAVE
                          AIR SEA DIR/SP/G                  HT/PER
                          (F)     (DEG/KT/KT) (MB)    (MI)  (FT/S)
WAUKEGAN HARBOR            27      50/ 18/ 22   N/A
HARRISON CRIB              27      30/ 19/ 23   N/A
BURNHAM HARBOR             27      30/ 14/ 20   N/A
CALUMET HARBOR             27      20/ 16/ 20   N/A
MICHIGAN CITY              25      30/ 18/ 20   N/A
$$

ILZ025>027-034>036-040-047-049-050-058-095>099-260400-
WEST-CENTRAL ILLINOIS

CITY           SKY/WX    TMP DP  RH WIND       PRES   REMARKS
QUINCY         CLOUDY    29  24  82 N14       30.02R WCI  18
$$

ILZ028>032-037-038-041>044-048-051>054-059>061-260400-
CENTRAL ILLINOIS

CITY           SKY/WX    TMP DP  RH WIND       PRES   REMARKS
DECATUR        CLOUDY    30  29  96 N18       29.92R WCI  18
PEORIA         CLEAR     26  17  68 N9G18     30.00R WCI  17
SPRINGFIELD    CLOUDY    30  23  75 N17       29.97R WCI  18
TAYLORVILLE    NOT AVBL
$$

ILZ033-039-045-046-055>057-062-063-260400-
EAST-CENTRAL ILLINOIS

CITY           SKY/WX    TMP DP  RH WIND       PRES   REMARKS
CHAMPAIGN      FLURRIES  30  25  81 N15       29.89R WCI  19
MATTOON        CLOUDY    30  25  81 N22G30    29.86R WCI  17
$$

ILZ079-100>102-260400-
SOUTHWEST ILLINOIS

CITY           SKY/WX    TMP DP  RH WIND       PRES   REMARKS
CAHOKIA*       CLOUDY    33  30  88 N18G24    29.97R WCI  22
SPARTA*        DRIZZLE   33  32  94 N18       29.92R WCI  22
$$

ILZ064>066-069>071-074>076-080>082-084>086-088>090-092>094-260400-
SOUTH-CENTRAL ILLINOIS

CITY           SKY/WX    TMP DP  RH WIND       PRES   REMARKS
CARBONDALE     CLOUDY    36  32  85 N21G31    29.86R WCI  25
MT. VERNON     CLOUDY    34  28  80 N14G26    29.85R WCI  24
SALEM*         CLOUDY    35  32  87 N16       29.87R WCI  25
$$

ILZ067-068-072-073-078-083-087-091-260400-
SOUTHEAST ILLINOIS

CITY           SKY/WX    TMP DP  RH WIND       PRES   REMARKS
LAWRENCEVILLE  CLOUDY    33  31  92 N18G26    29.80R WCI  22
ROBINSON*      CLOUDY    31  29  91 N18G26    29.82R WCI  20
$$

ABBREVIATIONS USED IN REMARKS
   TC - TEMPERATURE IN CELSIUS
  WCI - WIND CHILL INDEX
   HX - HEAT INDEX
  VSB - VISIBILITY
$$



USA.gov is the U.S. government's official web portal to all federal, state and local government web resources and services.